Location: Asheville, NC
(35.6000°N, 82.5500°W)
Time: 06:27:10
(UTC-04:00)

DOVE 4 - Visible Passes

Search period start: 22 July 2018 00:00
Search period end: 01 August 2018 00:00
Orbit: 589 x 802 km, 97.7° (Epoch: 21 July)

Date Brightness Start Highest point End Pass type
(mag) Time Alt. Az. Time Alt. Az. Time Alt. Az.
22 Jul ? 04:55:13 10° NE 04:59:16 28° E 05:03:05 10° SSE visible
23 Jul ? 05:35:29 10° NNE 05:40:11 85° E 05:44:35 10° S visible
24 Jul ? 04:39:47 10° NE 04:43:03 19° E 04:46:10 10° SE visible
25 Jul ? 05:19:32 10° NNE 05:24:05 55° E 05:28:19 10° S visible
26 Jul ? 04:24:58 10° ENE 04:26:47 12° E 04:28:34 10° ESE visible
26 Jul ? 06:00:23 10° N 06:04:49 48° WNW 06:08:58 10° SSW visible
27 Jul ? 05:03:45 10° NNE 05:07:56 35° E 05:11:52 10° SSE visible
28 Jul ? 05:44:15 10° N 05:48:46 74° WNW 05:53:02 10° SSW visible
29 Jul ? 04:48:10 10° NE 04:51:43 23° E 04:55:08 10° SSE visible
30 Jul ? 05:28:13 10° NNE 05:32:40 72° E 05:36:53 10° S visible
31 Jul ? 04:32:54 10° NE 04:35:29 15° E 04:37:59 10° SE visible
